RANA Weather Reports


Display with metric or nautical units.
time (UTC)temp
F
wind
direction
speed
MPH
gust
MPH
rain 1hr
in
rain 24hr
in
rain mn
in
humidity
%
barometer
mb
20260831225510 61 251 20.0 22.0 0.00 0.00 0.00 69
20260831225010 61 245 18.0 20.0 0.00 0.00 0.00 68
20260831224511 61 247 18.0 20.0 0.00 0.00 0.00 67
20260831224010 61 253 20.0 25.0 0.00 0.00 0.00 67
20260831223510 61 263 22.0 22.0 0.00 0.00 0.00 67
20260831223011 61 268 25.0 27.0 0.00 0.00 0.00 67
20260831222510 61 268 29.0 31.0 0.00 0.00 0.00 66
20260831222011 61 265 29.0 34.0 0.00 0.00 0.00 66
20260831221511 61 261 27.0 29.0 0.00 0.00 0.00 66
20260831221011 61 265 25.0 27.0 0.00 0.00 0.00 66
20260831220511 61 263 25.0 31.0 0.00 0.00 0.00 65
20260831220010 61 259 25.0 29.0 0.00 0.00 0.00 65
20260831215511 63 258 20.0 27.0 0.00 0.00 0.00 65
20260831215010 63 252 22.0 25.0 0.00 0.00 0.00 63
20260831214511 63 238 16.0 16.0 0.00 0.00 0.00 61
20260831214010 63 235 13.0 16.0 0.00 0.00 0.00 62
20260831213511 63 256 9.0 9.0 0.00 0.00 0.00 63
20260831213010 63 279 7.0 9.0 0.00 0.00 0.00 62
20260831212510 63 293 7.0 11.0 0.00 0.00 0.00 63
20260831212012 63 292 7.0 9.0 0.00 0.00 0.00 63
20260831211511 63 290 9.0 11.0 0.00 0.00 0.00 63
20260831211010 63 288 11.0 11.0 0.00 0.00 0.00 62
20260831210511 63 282 9.0 11.0 0.00 0.00 0.00 63
20260831210010 63 289 11.0 16.0 0.00 0.00 0.00 63
20260831205511 63 296 11.0 11.0 0.00 0.00 0.00 64
20260831205010 63 291 11.0 13.0 0.00 0.00 0.00 65
20260831204511 64 277 16.0 18.0 0.00 0.00 0.00 60
20260831204010 64 268 16.0 18.0 0.00 0.00 0.00 58
20260831203510 64 269 16.0 18.0 0.00 0.00 0.00 58
20260831203018 64 265 18.0 18.0 0.00 0.00 0.00 57
20260831202510 64 260 18.0 18.0 0.00 0.00 0.00 55
20260831202015 66 254 18.0 20.0 0.00 0.00 0.00 54
20260831201510 64 255 16.0 18.0 0.00 0.00 0.00 56
20260831201013 64 252 13.0 16.0 0.00 0.00 0.00 56
20260831200510 66 261 16.0 18.0 0.00 0.00 0.00 54
20260831200011 66 258 16.0 18.0 0.00 0.00 0.00 54
20260831195510 66 253 13.0 16.0 0.00 0.00 0.00 56
20260831195011 66 254 16.0 18.0 0.00 0.00 0.00 54
20260831194511 66 249 16.0 18.0 0.00 0.00 0.00 54
20260831194011 66 254 16.0 16.0 0.00 0.00 0.00 56
20260831193511 66 251 13.0 16.0 0.00 0.00 0.00 58
20260831193010 66 258 16.0 16.0 0.00 0.00 0.00 58
20260831192511 66 260 16.0 16.0 0.00 0.00 0.00 59
20260831192010 66 266 16.0 16.0 0.00 0.00 0.00 59
20260831191510 66 268 13.0 16.0 0.00 0.00 0.00 59
20260831191011 66 269 16.0 18.0 0.00 0.00 0.00 58
20260831190510 66 270 18.0 18.0 0.00 0.00 0.00 57
20260831190010 66 267 16.0 18.0 0.00 0.00 0.00 57
20260831185511 66 264 13.0 16.0 0.00 0.00 0.00 57
20260831185010 66 269 11.0 13.0 0.00 0.00 0.00 58
20260831184511 66 268 11.0 13.0 0.00 0.00 0.00 58
20260831184010 66 274 11.0 11.0 0.00 0.00 0.00 58
20260831183510 66 277 13.0 16.0 0.00 0.00 0.00 57
20260831183011 68 277 13.0 16.0 0.00 0.00 0.00 57
20260831182511 68 264 13.0 16.0 0.00 0.00 0.00 57
20260831182013 66 273 16.0 16.0 0.00 0.00 0.00 57
20260831181511 66 273 16.0 18.0 0.00 0.00 0.00 57
20260831181010 66 278 16.0 18.0 0.00 0.00 0.00 58
20260831180510 68 274 18.0 20.0 0.00 0.00 0.00 57
20260831180011 68 277 18.0 22.0 0.00 0.00 0.00 56
20260831175510 68 273 18.0 20.0 0.00 0.00 0.00 56
20260831175010 68 274 16.0 16.0 0.00 0.00 0.00 55
20260831174510 68 269 16.0 18.0 0.00 0.00 0.00 54
20260831174011 68 270 16.0 16.0 0.00 0.00 0.00 54
20260831173510 68 268 16.0 16.0 0.00 0.00 0.00 55
20260831173011 68 270 16.0 18.0 0.00 0.00 0.00 54
20260831172510 68 269 13.0 18.0 0.00 0.00 0.00 53
20260831172016 70 271 13.0 16.0 0.00 0.00 0.00 52
20260831171511 70 274 16.0 18.0 0.00 0.00 0.00 51
20260831171010 70 270 18.0 20.0 0.00 0.00 0.00 51
20260831170511 68 271 18.0 18.0 0.00 0.00 0.00 52
20260831170011 68 271 18.0 20.0 0.00 0.00 0.00 53
20260831165510 68 269 20.0 22.0 0.00 0.00 0.00 52
20260831165010 68 273 18.0 20.0 0.00 0.00 0.00 52
20260831164510 70 273 18.0 20.0 0.00 0.00 0.00 52
20260831164010 70 279 13.0 18.0 0.00 0.00 0.00 52
20260831163510 70 274 20.0 22.0 0.00 0.00 0.00 49
20260831163011 70 275 18.0 18.0 0.00 0.00 0.00 50
20260831162512 70 274 18.0 20.0 0.00 0.00 0.00 50
20260831162010 70 269 18.0 20.0 0.00 0.00 0.00 50
20260831161511 70 273 20.0 22.0 0.00 0.00 0.00 49
20260831161010 72 275 22.0 22.0 0.00 0.00 0.00 49
20260831160511 72 285 22.0 27.0 0.00 0.00 0.00 48
20260831160010 72 274 18.0 22.0 0.00 0.00 0.00 51
20260831155511 72 270 20.0 22.0 0.00 0.00 0.00 49
20260831155010 70 266 18.0 22.0 0.00 0.00 0.00 51
20260831154510 70 272 27.0 27.0 0.00 0.00 0.00 49
20260831154011 70 275 25.0 27.0 0.00 0.00 0.00 49
20260831153511 70 278 27.0 31.0 0.00 0.00 0.00 49
20260831153010 70 274 29.0 34.0 0.00 0.00 0.00 48
20260831152510 72 274 25.0 29.0 0.00 0.00 0.00 50
20260831152015 72 272 25.0 27.0 0.00 0.00 0.00 49
20260831151518 72 266 22.0 27.0 0.00 0.00 0.00 48
20260831151009 72 255 22.0 25.0 0.00 0.00 0.00 48
20260831150511 72 279 20.0 25.0 0.00 0.00 0.00 49
20260831150010 72 261 20.0 27.0 0.00 0.00 0.00 51
20260831145510 72 265 20.0 22.0 0.00 0.00 0.00 51
20260831145010 72 256 20.0 25.0 0.00 0.00 0.00 50
20260831144510 72 262 27.0 29.0 0.00 0.00 0.00 50
20260831144010 72 263 27.0 31.0 0.00 0.00 0.00 49
20260831143510 70 269 25.0 27.0 0.00 0.00 0.00 51
20260831143011 72 275 25.0 29.0 0.00 0.00 0.00 50
20260831142511 70 272 27.0 31.0 0.00 0.00 0.00 50
20260831142010 72 259 22.0 29.0 0.00 0.00 0.00 50
20260831141511 70 268 27.0 29.0 0.00 0.00 0.00 50
20260831141010 72 263 29.0 31.0 0.00 0.00 0.00 48
20260831140510 72 265 18.0 20.0 0.00 0.00 0.00 52
20260831140010 70 267 25.0 27.0 0.00 0.00 0.00 51
20260831135510 70 272 27.0 31.0 0.00 0.00 0.00 48
20260831135011 72 272 20.0 22.0 0.00 0.00 0.00 51
20260831134510 72 267 25.0 29.0 0.00 0.00 0.00 49
20260831134010 72 281 20.0 25.0 0.00 0.00 0.00 52
20260831133510 70 274 27.0 31.0 0.00 0.00 0.00 50
20260831133011 70 262 18.0 18.0 0.00 0.00 0.00 52
20260831132511 70 270 20.0 25.0 0.00 0.00 0.00 52
20260831132009 70 276 22.0 25.0 0.00 0.00 0.00 51
20260831131510 70 281 18.0 20.0 0.00 0.00 0.00 54
20260831131009 70 284 22.0 27.0 0.00 0.00 0.00 53
20260831130510 70 276 22.0 25.0 0.00 0.00 0.00 53
20260831130013 70 282 25.0 25.0 0.00 0.00 0.00 55
20260831125511 70 282 25.0 29.0 0.00 0.00 0.00 53
20260831125011 70 274 20.0 22.0 0.00 0.00 0.00 56
20260831124510 70 268 22.0 25.0 0.00 0.00 0.00 54
20260831124010 70 263 22.0 25.0 0.00 0.00 0.00 58
20260831123510 68 266 22.0 25.0 0.00 0.00 0.00 58
20260831123011 68 264 27.0 29.0 0.00 0.00 0.00 55
20260831122511 70 251 27.0 31.0 0.00 0.00 0.00 54
20260831122014 70 254 27.0 31.0 0.00 0.00 0.00 54
20260831121511 70 253 20.0 22.0 0.00 0.00 0.00 57
20260831121011 70 265 27.0 31.0 0.00 0.00 0.00 55
20260831120510 70 264 27.0 31.0 0.00 0.00 0.00 53
20260831120011 70 260 25.0 29.0 0.00 0.00 0.00 54
20260831115510 70 259 27.0 31.0 0.00 0.00 0.00 56
20260831115017 70 263 29.0 34.0 0.00 0.00 0.00 57
20260831114510 70 252 29.0 31.0 0.00 0.00 0.00 54
20260831114010 70 266 31.0 36.0 0.00 0.00 0.00 55
20260831113510 70 266 31.0 36.0 0.00 0.00 0.00 54
20260831113011 70 259 25.0 29.0 0.00 0.00 0.00 55
20260831112510 68 264 29.0 29.0 0.00 0.00 0.00 57
20260831112011 68 274 34.0 36.0 0.00 0.00 0.00 59
20260831111510 68 262 25.0 27.0 0.00 0.00 0.00 58
20260831111010 70 255 22.0 27.0 0.00 0.00 0.00 60
20260831110509 70 258 27.0 29.0 0.00 0.00 0.00 59
20260831110010 68 267 22.0 27.0 0.00 0.00 0.00 63
20260831105510 70 255 25.0 29.0 0.00 0.00 0.00 61
20260831105018 70 250 20.0 22.0 0.00 0.00 0.00 64
20260831104511 68 237 18.0 20.0 0.00 0.00 0.00 65
20260831104011 68 260 18.0 25.0 0.00 0.00 0.00 67
20260831103510 68 246 16.0 20.0 0.00 0.00 0.00 69
20260831103011 68 248 18.0 20.0 0.00 0.00 0.00 71
20260831102512 68 259 22.0 25.0 0.00 0.00 0.00 69
20260831102010 68 248 13.0 18.0 0.00 0.00 0.00 74
20260831101511 68 254 13.0 22.0 0.00 0.00 0.00 73
20260831101011 68 239 13.0 13.0 0.00 0.00 0.00 76
20260831100517 68 239 9.0 13.0 0.00 0.00 0.00 76
20260831100010 64 249 11.0 16.0 0.00 0.00 0.00 82
20260831095511 64 238 13.0 18.0 0.00 0.00 0.00 83
20260831095011 63 223 11.0 13.0 0.00 0.00 0.00 85
20260831094511 63 232 11.0 16.0 0.00 0.00 0.00 85
20260831094011 63 227 9.0 9.0 0.00 0.00 0.00 87
20260831093510 63 224 13.0 16.0 0.00 0.00 0.00 85
20260831093011 64 233 11.0 16.0 0.00 0.00 0.00 85
20260831092511 64 227 13.0 16.0 0.00 0.00 0.00 82
20260831092013 66 229 11.0 13.0 0.00 0.00 0.00 80
20260831091510 63 246 11.0 13.0 0.00 0.00 0.00 84
20260831091010 63 241 13.0 16.0 0.00 0.00 0.00 87
20260831090511 61 250 11.0 13.0 0.00 0.00 0.00 89
20260831090011 61 253 13.0 16.0 0.00 0.00 0.00 91
20260831085510 61 257 13.0 16.0 0.00 0.00 0.00 90
20260831085011 61 248 9.0 11.0 0.00 0.00 0.00 89
20260831084510 61 246 11.0 13.0 0.00 0.00 0.00 87
20260831084011 61 254 11.0 13.0 0.00 0.00 0.00 89
20260831083510 61 246 11.0 13.0 0.00 0.00 0.00 89
20260831083011 61 232 13.0 16.0 0.00 0.00 0.00 87
20260831082511 61 218 11.0 13.0 0.00 0.00 0.00 86
20260831082010 61 213 9.0 11.0 0.00 0.00 0.00 87
20260831081517 61 199 11.0 13.0 0.00 0.00 0.00 88
20260831081017 59 188 11.0 13.0 0.00 0.00 0.00 89
20260831080510 59 186 11.0 13.0 0.00 0.00 0.00 89
20260831080010 59 185 13.0 16.0 0.00 0.00 0.00 88
20260831075517 59 178 13.0 16.0 0.00 0.00 0.00 88
20260831075012 59 171 11.0 13.0 0.00 0.00 0.00 87
20260831074510 59 177 13.0 18.0 0.00 0.00 0.00 85
20260831074011 59 174 13.0 16.0 0.00 0.00 0.00 85
20260831073518 59 175 11.0 16.0 0.00 0.00 0.00 86
20260831073011 59 179 11.0 16.0 0.00 0.00 0.00 87
20260831072511 59 168 9.0 9.0 0.00 0.00 0.00 89
20260831072010 57 165 9.0 9.0 0.00 0.00 0.00 91
20260831071511 57 173 9.0 11.0 0.00 0.00 0.00 92
20260831071016 57 168 7.0 9.0 0.00 0.00 0.00 92
20260831070510 57 178 9.0 9.0 0.00 0.00 0.00 92
20260831070010 57 166 7.0 9.0 0.00 0.00 0.00 92
20260831065510 57 164 7.0 7.0 0.00 0.00 0.00 90
20260831065017 59 205 9.0 9.0 0.00 0.00 0.00 89
20260831064510 59 205 7.0 9.0 0.00 0.00 0.00 88
20260831064011 59 204 7.0 7.0 0.00 0.00 0.00 90
20260831063510 57 234 4.0 4.0 0.00 0.00 0.00 93
20260831063011 57 255 7.0 7.0 0.00 0.00 0.00 92
20260831062510 57 251 9.0 9.0 0.00 0.00 0.00 90
20260831062010 57 189 9.0 9.0 0.00 0.00 0.00 90
20260831061510 57 150 4.0 9.0 0.00 0.00 0.00 91
20260831061018 57 246 9.0 9.0 0.00 0.00 0.00 92
20260831060511 57 265 9.0 9.0 0.00 0.00 0.00 92
20260831060011 55 278 11.0 11.0 0.00 0.00 0.00 89
20260831055510 55 289 13.0 13.0 0.00 0.00 0.00 89
20260831055010 55 290 16.0 18.0 0.00 0.00 0.00 88
20260831054510 55 286 18.0 20.0 0.00 0.00 0.00 92
20260831054010 54 277 34.0 38.0 0.00 0.00 0.00 91
20260831053511 57 274 20.0 27.0 0.00 0.00 0.00 82
20260831053010 61 168 0.0 0.0 0.00 0.00 0.00 76
20260831052510 61 147 2.0 2.0 0.00 0.00 0.00 76
20260831052015 61 112 0.0 2.0 0.00 0.00 0.00 74
20260831051510 61 104 4.0 7.0 0.00 0.00 0.00 75
20260831051011 59 109 4.0 7.0 0.00 0.00 0.00 76
20260831050511 59 100 4.0 7.0 0.00 0.00 0.00 75
20260831050010 59 101 4.0 4.0 0.00 0.00 0.00 77
20260831045510 59 110 4.0 7.0 0.00 0.00 0.00 78
20260831045010 57 117 7.0 9.0 0.00 0.00 0.00 80
20260831044511 57 125 9.0 9.0 0.00 0.00 0.00 80
20260831044011 61 185 2.0 2.0 0.00 0.00 0.00 74
20260831043511 63 210 0.0 0.0 0.00 0.00 0.00 72
20260831043011 63 242 0.0 0.0 0.00 0.00 0.00 72
20260831042511 63 0 0.0 0.0 0.00 0.00 0.00 71
20260831041510 64 0 0.0 0.0 0.00 0.00 0.00 70
20260831041011 64 242 2.0 2.0 0.00 0.00 0.00 70
20260831040510 64 226 0.0 0.0 0.00 0.00 0.00 70
20260831040011 64 212 2.0 2.0 0.00 0.00 0.00 70
20260831035510 64 202 2.0 2.0 0.00 0.00 0.00 69
20260831035011 64 243 4.0 4.0 0.00 0.00 0.00 70
20260831034510 63 261 2.0 2.0 0.00 0.00 0.00 70
20260831034010 64 237 4.0 4.0 0.00 0.00 0.00 70
20260831033510 64 232 4.0 4.0 0.00 0.00 0.00 70
20260831033011 63 262 4.0 4.0 0.00 0.00 0.00 71
20260831032511 64 257 4.0 7.0 0.00 0.00 0.00 69
20260831032005 64 236 4.0 4.0 0.00 0.00 0.00 69
20260831031010 64 247 7.0 7.0 0.00 0.00 0.00 69
20260831030510 64 241 7.0 7.0 0.00 0.00 0.00 69
20260831030011 64 240 7.0 7.0 0.00 0.00 0.00 70
20260831025504 64 230 9.0 9.0 0.00 0.00 0.00 70
20260831025010 64 229 7.0 7.0 0.00 0.00 0.00 70
20260831024510 64 231 7.0 9.0 0.00 0.00 0.00 70
20260831024010 64 235 7.0 9.0 0.00 0.00 0.00 70
20260831023510 64 240 7.0 9.0 0.00 0.00 0.00 70
20260831023010 64 235 9.0 9.0 0.00 0.00 0.00 70
20260831022510 64 232 7.0 9.0 0.00 0.00 0.00 70
20260831022010 64 231 9.0 9.0 0.00 0.00 0.00 70
20260831021511 64 215 4.0 7.0 0.00 0.00 0.00 70
20260831021010 64 214 7.0 7.0 0.00 0.00 0.00 70
20260831020503 64 203 7.0 7.0 0.00 0.00 0.00 70
20260831020004 64 210 7.0 7.0 0.00 0.00 0.00 70
20260831015503 64 207 7.0 7.0 0.00 0.00 0.00 69
20260831015004 64 217 7.0 9.0 0.00 0.00 0.00 70
20260831014510 64 215 7.0 9.0 0.00 0.00 0.00 70
20260831014010 64 217 9.0 9.0 0.00 0.00 0.00 70
20260831013510 63 224 9.0 9.0 0.00 0.00 0.00 70
20260831013011 63 235 9.0 9.0 0.00 0.00 0.00 71
20260831012510 63 238 9.0 9.0 0.00 0.00 0.00 71
20260831012010 63 246 9.0 9.0 0.00 0.00 0.00 70
20260831011510 63 251 9.0 11.0 0.00 0.00 0.00 70
20260831011010 63 247 9.0 11.0 0.00 0.00 0.00 71
20260831010510 63 243 9.0 9.0 0.00 0.00 0.00 70
20260831010010 63 245 9.0 9.0 0.00 0.00 0.00 69
20260831005510 64 249 9.0 9.0 0.00 0.00 0.00 69
20260831005010 64 252 9.0 9.0 0.00 0.00 0.00 68
20260831004511 64 253 9.0 9.0 0.00 0.00 0.00 68
20260831004010 63 255 11.0 11.0 0.00 0.00 0.00 69
20260831003511 63 257 11.0 11.0 0.00 0.00 0.00 69
20260831003010 63 261 11.0 11.0 0.00 0.00 0.00 69
20260831002511 63 262 11.0 11.0 0.00 0.00 0.00 69
20260831002012 64 261 11.0 11.0 0.00 0.00 0.00 68
20260831001511 63 258 11.0 11.0 0.00 0.00 0.00 68
20260831001010 63 262 11.0 11.0 0.00 0.00 0.00 68
20260831000510 63 254 11.0 11.0 0.00 0.00 0.00 67
20260831000011 63 250 9.0 11.0 0.00 0.00 0.00 67
20260830235511 64 245 9.0 9.0 0.00 0.00 0.00 67
20260830235011 64 249 9.0 9.0 0.00 0.00 0.00 64
20260830234511 64 248 7.0 7.0 0.00 0.00 0.00 64
20260830234011 64 243 7.0 7.0 0.00 0.00 0.00 63
20260830233510 64 238 7.0 7.0 0.00 0.00 0.00 59
20260830233011 66 264 4.0 4.0 0.00 0.00 0.00 58
20260830232511 66 266 7.0 7.0 0.00 0.00 0.00 57
20260830232017 66 269 7.0 7.0 0.00 0.00 0.00 57
20260830231511 66 269 7.0 7.0 0.00 0.00 0.00 56
20260830231010 66 267 7.0 7.0 0.00 0.00 0.00 56
20260830230010 66 268 7.0 7.0 0.00 0.00 0.00 56